Location: Artiguedieu
(43.5000°N, 0.5454°E)
Time: 01:38:12
(UTC+00:00)

Transit 2A Rocket - Pass Details

Date: 02 August 2021
Orbit: 586 x 916 km, 66.7° (Epoch: 16 September)

Event Time Altitude Azimuth Distance (km) Brightness Sun altitude
Rises 13:05:38 0° 189° (S) 2,822 8.3 61.0°
Reaches altitude 10° 13:07:55 10° 181° (S) 1,948 7.7 60.8°
Maximum altitude 13:11:57 38° 113° (ESE) 964 6.0 60.4°
Drops below altitude 10° 13:16:18 10° 45° (NE) 2,098 7.1 60.0°
Sets 13:18:50 0° 38° (NE) 3,071 7.8 59.7°
